Location: Bathurst
(33.4193°S, 149.5775°E)
Time: 21:46:34
(UTC+11:00)

ISS - Pass Details

Date: 01 February 2021
Orbit: 417 x 422 km, 51.6° (Epoch: 27 February)

Event Time Altitude Azimuth Distance (km) Brightness Sun altitude
Exits shadow 03:10:28 11° 159° (SSE) 1,492 -0.2 -32.4°
Drops below altitude 10° 03:10:33 10° 158° (SSE) 1,524 -0.1 -32.4°
Sets 03:12:55 0° 144° (SE) 2,394 1.2 -32.1°
